Snowfall_Accumulation
0.0 0.0 0.0 0.0 0.0 0.0 0.0 0.0 0.0 0.0 0.0 0.0 0.0 0.0 0.0 0.0 0.0 0.0 0.0 0.0 0.5 3.5 0.3 0.0 0.0 0.0 0.5 0.0 0.2 0.0 0.7 0.7 0.3 5.5 2.8 1.6 0.9 0.0 0.1 0.0 0.0 0.0 1.1 1.3 1.1 1.4 0.4 0.0 0.0 0.0 0.0 0.0 0.0 0.0
0.0 0.0 0.0 0.0 0.0 0.0 0.0 0.0 0.0 0.0 0.0 0.0 0.0 0.0 0.0 0.0 0.0 0.0 0.0 0.0 0.0 2.7 1.3 0.0 0.0 0.0 0.0 0.0 0.3 0.0 0.0 0.0 0.2 2.0 0.9 0.7 1.3 1.2 0.5 0.5 0.0 0.4 0.1 0.5 1.0 0.6 0.0 0.0 0.0 0.0 0.0 0.0 0.0 0.0
0.0 0.0 0.0 0.0 0.0 0.0 0.0 0.0 0.0 0.0 0.0 0.0 0.0 0.0 0.0 0.0 0.0 0.0 0.0 0.0 0.0 2.8 2.6 0.0 0.1 0.0 0.0 0.0 0.0 1.0 0.0 0.0 0.1 0.0 2.5 1.0 2.3 0.8 1.0 0.2 0.3 0.2 0.0 0.0 0.0 0.0 0.0 0.0 0.0 0.0 0.0 0.0 0.0 0.0
0.0 0.0 0.0 0.0 0.0 0.0 0.0 0.0 0.0 0.0 0.0 0.0 0.0 0.0 0.0 0.0 0.0 0.0 0.0 0.0 0.0 2.2 6.9 2.5 0.0 0.0 0.0 0.0 0.0 0.0 0.0 0.0 0.2 0.3 2.4 0.5 2.7 1.1 0.5 0.6 0.2 0.2 0.1 0.1 0.2 0.8 0.0 0.0 0.0 0.0 0.0 0.0 0.0 0.0
0.0 0.0 0.0 0.0 0.0 0.0 0.0 0.0 0.0 0.0 0.0 0.0 0.0 0.0 0.0 0.0 0.0 0.0 0.0 0.0 0.0 0.0 2.7 5.5 0.0 0.0 0.0 0.0 0.0 0.0 0.0 0.0 0.3 1.9 3.9 3.4 2.1 2.4 0.1 1.1 0.3 0.0 0.0 0.2 0.4 0.0 0.0 0.0 0.0 0.0 0.5 0.3 0.0 0.0
0.0 0.0 0.0 0.0 0.0 0.0 0.0 0.0 0.0 0.0 0.0 0.0 0.0 0.0 0.0 0.0 0.0 0.0 26.0 0.0 0.0 0.0 0.9 5.6 0.0 0.1 0.0 0.0 0.0 0.0 0.0 0.0 0.2 1.4 2.1 1.4 0.0 2.6 2.7 1.8 0.0 0.0 0.0 0.0 0.0 0.0 0.0 0.0 0.0 0.0 0.2 0.0 0.0 0.0
0.0 0.0 0.0 0.0 0.0 0.0 0.0 0.0 0.0 0.0 0.0 0.0 0.0 0.0 0.0 0.0 0.0 14.4 8.9 0.0 0.0 0.0 4.6 2.7 6.3 0.0 0.0 0.0 0.0 0.0 0.0 0.1 0.3 1.1 0.7 0.3 1.1 1.0 2.0 0.5 0.1 0.0 0.0 0.0 0.0 0.0 0.0 0.2 0.4 0.0 0.1 0.0 0.0 0.0
0.0 0.0 0.0 0.0 0.0 0.0 0.0 0.0 0.0 0.0 0.0 0.0 0.0 0.0 0.0 0.0 0.0 1.6 0.0 0.0 0.0 1.1 4.2 2.7 6.3 8.9 1.1 3.7 4.5 0.0 3.8 0.6 1.3 1.9 1.0 0.6 0.9 1.0 0.8 0.0 0.0 0.0 0.0 0.0 0.0 0.0 0.0 0.1 0.5 0.2 0.0 0.0 0.0 0.0
0.0 0.0 0.0 0.0 0.0 0.0 0.0 0.0 0.0 0.0 0.0 0.0 0.0 0.0 0.0 0.0 8.0 0.0 0.0 0.0 0.0 0.0 2.1 0.8 1.4 5.5 1.7 1.9 2.4 2.1 0.4 2.7 2.7 2.9 1.3 0.9 1.2 0.8 0.0 0.0 0.0 0.0 0.0 0.0 0.0 0.0 0.1 0.0 0.1 0.0 0.0 0.0 0.0 0.0
0.0 0.0 0.0 0.0 0.0 0.0 0.0 0.0 0.0 0.0 0.0 0.0 0.0 3.5 11.1 0.0 0.0 0.0 3.1 6.8 6.0 4.5 1.1 2.3 0.2 3.1 0.8 1.1 1.4 0.4 2.5 1.2 1.2 0.7 0.4 1.2 0.2 0.0 0.0 0.0 0.0 0.0 0.0 0.0 0.1 0.9 0.8 0.7 0.2 0.0 0.0 0.0 0.0 0.0
0.0 0.0 0.0 0.0 0.0 0.0 0.0 0.0 0.0 0.0 0.0 0.0 2.6 5.1 0.0 0.0 0.0 0.7 5.2 4.2 3.8 4.4 1.2 1.1 0.0 0.4 0.0 0.2 0.4 0.0 0.9 0.8 0.7 0.3 0.1 0.3 0.0 0.0 0.0 0.0 0.0 0.0 0.0 0.0 0.0 0.2 0.0 0.0 0.0 0.0 0.0 0.0 0.0 0.0
0.0 0.0 0.0 0.0 0.0 0.0 0.0 0.0 0.0 0.0 0.0 0.0 0.0 0.0 0.0 2.2 1.5 1.5 1.9 1.2 0.2 1.4 2.1 1.7 1.2 0.5 0.7 0.0 0.6 0.2 0.5 0.1 0.2 0.0 0.2 0.2 0.1 0.0 0.1 0.0 0.0 0.0 0.0 0.0 0.0 0.0 0.0 0.0 0.0 0.0 0.0 0.0 0.0 0.0
0.0 0.0 0.0 0.0 0.0 0.0 0.0 0.0 0.0 0.0 0.0 0.0 0.0 0.6 0.1 0.4 0.0 0.3 0.1 0.1 0.1 0.1 0.8 0.4 0.7 0.3 0.3 0.3 1.0 0.5 0.2 0.2 0.1 0.3 0.1 0.1 0.0 0.0 0.0 0.0 0.2 0.3 0.3 0.0 0.3 0.0 0.0 0.0 0.0 0.0 0.0 0.0 0.0 0.0
0.0 0.0 0.0 0.0 0.0 0.0 0.0 0.0 0.0 0.0 0.0 0.0 0.1 0.0 0.0 0.0 0.3 0.1 0.0 0.0 0.0 0.0 0.0 0.0 0.0 0.1 0.2 0.2 0.6 0.7 0.3 0.0 0.5 0.2 0.0 0.0 0.0 0.0 0.0 0.0 0.0 0.1 0.3 0.7 0.0 0.0 0.0 0.0 0.0 0.0 0.0 0.0 0.0 0.0
0.0 0.0 0.0 0.0 0.0 0.0 0.0 0.0 0.0 0.0 0.0 0.0 0.0 0.1 0.7 0.7 0.2 0.0 0.0 0.0 0.0 0.0 0.0 0.0 0.2 0.0 0.0 0.1 0.0 0.3 0.2 0.2 0.0 0.2 0.0 0.0 0.0 0.0 0.0 0.0 0.1 0.1 0.3 0.5 0.0 0.0 0.0 0.0 0.0 0.0 0.0 0.0 0.0 0.0
0.0 0.0 0.0 0.0 0.0 0.0 0.0 0.0 0.0 0.0 0.0 0.0 0.9 2.2 1.5 0.3 1.1 0.1 0.2 0.1 0.0 0.0 0.0 0.2 0.4 0.5 0.6 0.2 0.1 0.0 0.0 0.0 0.2 0.0 0.0 0.0 0.0 0.0 0.0 0.0 0.1 0.3 0.5 0.3 0.0 0.0 0.0 0.0 0.0 0.0 0.0 0.0 0.0 0.0
0.0 0.0 0.0 0.0 0.0 0.0 0.0 0.0 0.0 0.0 0.0 0.0 2.4 2.0 0.6 1.4 1.2 0.5 0.1 0.0 0.0 0.0 0.0 0.0 0.2 0.3 0.2 0.1 0.0 0.0 0.0 0.1 0.0 0.0 0.0 0.0 0.0 0.0 0.1 0.0 0.1 0.3 0.4 0.2 0.0 0.0 0.0 0.0 0.0 0.0 0.0 0.0 0.0 0.0
0.0 0.0 0.0 0.0 0.0 0.0 0.0 0.0 0.0 0.0 0.8 2.1 2.5 1.4 0.5 0.7 1.0 1.3 0.9 0.0 0.0 0.0 0.0 0.0 0.0 0.0 0.0 0.0 0.1 0.2 0.2 0.2 0.1 0.1 0.1 0.1 0.2 0.3 0.1 0.0 0.0 0.0 0.0 0.0 0.0 0.0 0.0 0.0 0.0 0.0 0.0 0.0 0.0 0.0
0.0 0.0 0.0 0.0 0.0 0.0 0.0 0.0 0.0 0.6 2.2 1.6 1.1 0.6 0.4 0.9 1.1 1.0 0.6 0.0 0.0 0.0 0.0 0.0 0.0 0.0 0.6 0.5 0.4 0.1 0.0 0.0 0.2 0.3 0.3 0.2 0.2 0.1 0.0 0.0 0.0 0.0 0.0 0.0 0.0 0.0 0.0 0.0 0.0 0.0 0.0 0.0 0.0 0.0
0.0 0.0 0.0 0.0 0.0 0.0 0.0 0.0 0.0 0.3 0.5 0.6 0.6 0.4 0.3 0.4 0.3 0.3 0.1 0.0 0.0 0.0 0.0 0.0 0.4 0.5 0.5 0.4 0.3 0.1 0.0 0.0 0.0 0.3 0.8 0.7 0.1 0.0 0.0 0.0 0.0 0.0 0.0 0.0 0.0 0.0 0.0 0.0 0.0 0.0 0.0 0.0 0.0 0.0
0.0 0.0 0.0 0.0 0.0 0.0 0.0 0.0 0.0 0.0 0.0 0.1 0.1 0.0 0.1 0.1 0.1 0.0 0.0 0.0 0.0 0.1 0.2 0.6 0.7 0.7 0.5 0.3 0.2 0.1 0.1 0.1 0.1 0.0 0.0 0.4 0.0 0.0 0.0 0.0 0.0 0.0 0.0 0.0 0.0 0.0 0.0 0.0 0.0 0.0 0.0 0.0 0.1 0.1
0.0 0.0 0.0 0.0 0.0 0.0 0.0 0.0 0.0 0.0 0.0 0.0 0.0 0.0 0.0 0.0 0.0 0.0 0.0 0.0 0.3 0.8 0.6 0.6 0.5 0.4 0.2 0.1 0.2 0.0 0.1 0.2 0.1 0.2 0.2 0.0 0.1 0.0 0.0 0.0 0.0 0.0 0.0 0.0 0.0 0.0 0.0 0.0 0.0 0.0 0.0 0.0 0.0 0.0
0.0 0.0 0.0 0.0 0.0 0.0 0.0 0.0 0.0 0.0 0.0 0.0 0.0 0.0 0.0 0.0 0.0 0.0 0.0 0.1 0.7 1.1 0.6 0.3 0.2 0.2 0.2 0.2 0.0 0.0 0.0 0.0 0.0 0.2 0.2 0.2 0.1 0.0 0.0 0.0 0.0 0.0 0.0 0.0 0.0 0.0 0.0 0.0 0.0 0.1 0.1 0.0 0.1 0.1
0.0 0.0 0.0 0.0 0.0 0.0 0.0 0.0 0.0 0.0 0.0 0.0 0.0 0.0 0.0 0.0 0.0 0.0 0.0 0.3 0.8 0.5 0.2 0.2 0.1 0.0 0.0 0.0 0.0 0.0 0.0 0.0 0.0 0.0 0.0 0.0 0.0 0.0 0.0 0.0 0.0 0.0 0.0 0.0 0.0 0.0 0.0 0.0 0.0 0.0 0.0 0.0 0.1 0.1
0.0 0.0 0.0 0.0 0.0 0.0 0.0 0.0 0.0 0.0 0.0 0.0 0.0 0.0 0.0 0.0 0.0 0.0 0.0 0.8 0.7 0.3 0.1 0.1 0.0 0.0 0.0 0.1 0.2 0.2 0.0 0.0 0.0 0.0 0.0 0.0 0.0 0.0 0.1 0.0 0.0 0.0 0.0 0.0 0.0 0.1 0.0 0.0 0.0 0.1 0.0 0.0 0.0 0.0
0.0 0.0 0.0 0.0 0.0 0.0 0.0 0.0 0.0 0.0 0.0 0.0 0.0 0.0 0.0 0.0 0.0 0.1 0.5 1.1 0.7 0.4 0.3 0.2 0.2 0.0 0.1 0.2 0.1 0.1 0.2 0.1 0.0 0.0 0.0 0.0 0.0 0.0 0.0 0.0 0.0 0.0 0.0 0.0 0.0 0.0 0.0 0.0 0.0 0.0 0.0 0.0 0.0 0.0
0.0 0.1 0.0 0.0 0.0 0.0 0.0 0.0 0.0 0.0 0.0 0.0 0.0 0.0 0.0 0.0 0.3 0.6 0.7 0.8 0.6 0.4 0.3 0.4 0.4 0.3 0.4 0.4 0.6 0.5 0.4 0.3 0.2 0.1 0.1 0.0 0.0 0.0 0.0 0.0 0.0 0.0 0.0 0.0 0.0 0.0 0.0 0.0 0.0 0.0 0.0 0.0 0.0 0.0
0.1 0.2 0.6 0.0 0.0 0.0 0.3 0.2 0.2 0.4 0.3 0.0 0.0 0.1 0.1 0.4 0.7 0.8 0.7 0.4 0.5 0.5 0.3 0.2 0.2 0.4 0.6 0.5 0.5 0.4 0.3 0.4 0.5 0.3 0.3 0.2 0.1 0.0 0.0 0.0 0.0 0.0 0.0 0.0 0.0 0.0 0.1 0.0 0.0 0.0 0.0 0.0 0.2 0.2
0.2 0.3 0.9 1.0 0.8 0.4 0.6 0.6 0.7 0.3 0.2 0.1 0.8 0.5 0.4 0.4 1.0 0.9 0.8 1.2 1.6 1.3 0.8 0.5 0.1 0.1 0.1 0.1 0.2 0.2 0.5 0.7 0.5 0.6 0.5 0.2 0.5 0.6 0.3 0.1 0.1 0.0 0.0 0.0 0.0 0.0 0.0 0.0 0.1 0.1 0.3 0.3 0.4 0.5
0.2 0.6 1.1 1.1 1.2 1.0 0.7 0.7 0.6 0.5 0.4 0.3 0.2 0.3 0.4 1.2 1.7 1.5 1.3 1.2 1.1 1.0 1.1 0.9 0.7 0.6 0.5 0.4 0.3 0.2 0.4 1.0 1.0 0.9 0.7 0.6 0.4 0.7 0.9 0.9 0.7 0.4 0.2 0.2 0.5 0.8 1.0 0.9 0.9 0.9 0.8 0.7 0.7 0.6
0.1 0.4 0.1 0.4 0.6 1.1 1.2 1.3 1.0 0.7 0.4 0.4 0.2 0.2 0.2 0.5 1.1 0.7 0.6 0.7 0.7 0.3 0.4 0.6 0.6 0.6 0.3 0.7 0.9 0.6 0.6 0.2 0.3 0.7 1.0 1.3 0.9 0.8 0.9 1.0 1.1 1.2 1.2 1.1 0.9 0.7 0.7 0.8 0.8 0.7 0.6 0.6 0.5 0.4
0.1 0.3 0.2 0.1 0.4 0.7 1.0 1.1 0.7 0.4 0.7 0.4 0.6 0.1 0.4 0.4 0.4 0.5 0.3 0.2 0.2 0.2 0.1 0.4 0.5 0.4 0.5 0.8 1.5 1.4 1.0 0.6 0.4 0.7 0.4 0.5 1.1 1.3 1.1 0.7 0.8 1.2 1.4 1.5 1.4 1.4 1.2 1.1 1.0 0.8 0.6 0.6 0.6 0.5
0.2 0.2 0.2 0.1 0.4 0.6 0.6 0.7 0.4 0.5 0.5 0.4 0.5 0.5 0.5 0.2 0.4 0.6 0.0 0.1 0.4 0.3 0.3 0.4 0.4 0.5 0.7 0.9 1.1 0.8 0.6 0.5 0.6 0.9 0.8 0.8 1.0 1.2 1.1 0.9 0.8 0.9 1.0 1.0 1.1 1.1 1.1 1.1 1.1 0.9 1.0 0.9 0.7 0.7